Hourly Data Report for December 14, 2020

SHEARWATER RCS
NOVA SCOTIA
Current Station Operator: ECCC - MSC

44°37'47.000" N
63°30'48.000" W
24.00 m
8205092
71264
AAW

Download Data

Hourly Data (December 2020)
Hourly Data Report for December 14, 2020
TIME
LST
Temp Definition
°C
Dew Point Definition
°C
Rel Hum Definition
%
Precip. Amount Definition
mm

Wind Dir Definition
10's deg

Wind Spd Definition
km/h
Visibility Definition
km
Stn Press Definition
kPa
Hmdx Definition


Wind Chill Definition


Weather Definition


00:00 8.9 8.6 98 0.0 24 8   100.67     LegendNANA
01:00 8.9 8.3 96 0.0 24 11   100.66     LegendNANA
02:00 8.1 7.5 96 0.0 23 10   100.66     LegendNANA
03:00 8.4 7.4 94 0.0 24 10   100.69     LegendNANA
04:00 8.2 6.8 91 0.0 27 10   100.81     LegendNANA
05:00 7.5 6.0 90 0.0 29 7   100.75     LegendNANA
06:00 6.6 4.7 88 0.0 30 13   100.79     LegendNANA
07:00 5.6 3.1 84 0.0 31 13   100.86     LegendNANA
08:00 4.6 2.6 87 0.0 30 7   100.86     LegendNANA
09:00 4.9 2.2 83 0.0 29 9   100.92     LegendNANA
10:00 5.1 1.5 77 0.0 31 16   100.89     LegendNANA
11:00 4.5 0.1 73 0.0 31 16   100.88     LegendNANA
12:00 4.6 0.2 73 0.0 29 10   100.83     LegendNANA
13:00 4.7 0.3 73 0.0 31 10   100.81     LegendNANA
14:00 4.5 0.3 74 0.0 30 9   100.80     LegendNANA
15:00 4.4 0.1 74 0.0 33 8   100.66     LegendNANA
16:00 4.0 0.4 77 0.0 3 4   100.50     LegendNANA
17:00 3.8 0.7 80 0.0 10 4   100.43     LegendNANA
18:00 3.7 1.0 82 0.0 31 8   100.44     LegendNANA
19:00 3.9 0.8 81 0.0 33 5   100.42     LegendNANA
20:00 3.2 1.3 87 0.2 2 6   100.32     LegendNANA
21:00 2.5 1.1 91 0.6 35 9   100.21     LegendNANA
22:00 2.1 0.9 92 0.8 35 6   100.10     LegendNANA
23:00 1.7 0.8 94 0.2 34 3   99.95     LegendNANA

Notes on Data Quality.

Legend

  • E = Estimated
  • M = Missing
  • NA = Not Available*
  • [empty] = Indicates an unobserved value
Date modified: